Time,TemperatureF,DewpointF,PressureIn,WindDirection,WindDirectionDegrees,WindSpeedMPH,WindSpeedGustMPH,Humidity,HourlyPrecipIn,Conditions,Clouds,dailyrainin,SoftwareType,DateUTC
2013-05-24 00:02:00,43.0,38.0,30.29,ENE,75,0.0,1.0,83,0.00,,,0.60,,2013-05-24 05:02:00,
2013-05-24 00:12:00,43.0,38.0,30.29,ENE,75,0.0,1.0,83,0.00,,,0.60,,2013-05-24 05:12:00,
2013-05-24 00:22:00,43.0,38.0,30.30,ENE,75,0.0,0.0,83,-99.99,,,-99.99,,2013-05-24 05:22:00,
2013-05-24 00:32:00,42.0,38.0,30.31,ENE,75,0.0,2.0,84,-99.99,,,-99.99,,2013-05-24 05:32:00,
2013-05-24 00:42:00,42.0,38.0,30.31,ENE,75,0.0,2.0,84,-99.99,,,-99.99,,2013-05-24 05:42:00,
2013-05-24 00:52:00,41.0,37.0,30.31,ENE,75,0.0,0.0,84,-99.99,,,-99.99,,2013-05-24 05:52:00,
2013-05-24 01:02:00,41.0,37.0,30.31,ENE,75,0.0,0.0,85,-99.99,,,-99.99,,2013-05-24 06:02:00,
2013-05-24 01:12:00,41.0,37.0,30.31,ENE,75,0.0,0.0,85,-99.99,,,-99.99,,2013-05-24 06:12:00,
2013-05-24 01:21:00,40.0,36.0,30.31,ENE,75,0.0,0.0,86,0.00,,,-99.99,,2013-05-24 06:21:00,
2013-05-24 01:32:00,40.0,36.0,30.32,ENE,75,0.0,0.0,87,0.00,,,-99.99,,2013-05-24 06:32:00,
2013-05-24 01:41:00,40.0,36.0,30.32,ENE,75,0.0,0.0,87,0.00,,,-99.99,,2013-05-24 06:41:00,
2013-05-24 01:52:00,40.0,36.0,30.32,ENE,75,0.0,0.0,87,0.00,,,-99.99,,2013-05-24 06:52:00,
2013-05-24 02:01:00,39.0,36.0,30.32,ENE,75,0.0,0.0,88,0.00,,,-99.99,,2013-05-24 07:01:00,
2013-05-24 02:11:00,39.0,36.0,30.32,ENE,75,0.0,0.0,88,0.00,,,-99.99,,2013-05-24 07:11:00,
2013-05-24 02:22:00,39.0,36.0,30.32,ENE,75,0.0,0.0,88,0.00,,,-99.99,,2013-05-24 07:22:00,
2013-05-24 02:31:00,39.0,36.0,30.32,ENE,75,0.0,0.0,89,0.00,,,-99.99,,2013-05-24 07:31:00,
2013-05-24 02:42:00,39.0,36.0,30.32,ENE,75,0.0,0.0,89,0.00,,,-99.99,,2013-05-24 07:42:00,
2013-05-24 02:52:00,38.0,35.0,30.32,ENE,75,0.0,0.0,89,0.00,,,-99.99,,2013-05-24 07:52:00,
2013-05-24 03:02:00,38.0,35.0,30.32,ENE,75,0.0,0.0,89,0.00,,,-99.99,,2013-05-24 08:02:00,
2013-05-24 03:11:00,38.0,35.0,30.32,ENE,75,0.0,0.0,89,0.00,,,-99.99,,2013-05-24 08:11:00,
2013-05-24 03:22:00,38.0,35.0,30.33,ENE,75,0.0,0.0,89,0.00,,,0.00,,2013-05-24 08:22:00,
2013-05-24 03:32:00,38.0,35.0,30.32,ENE,75,0.0,0.0,90,0.00,,,0.00,,2013-05-24 08:32:00,
2013-05-24 03:42:00,38.0,35.0,30.32,ENE,75,0.0,0.0,90,0.00,,,0.00,,2013-05-24 08:42:00,
2013-05-24 03:52:00,38.0,35.0,30.33,ENE,75,0.0,0.0,90,0.00,,,0.00,,2013-05-24 08:52:00,
2013-05-24 04:01:00,38.0,35.0,30.34,ENE,75,0.0,0.0,90,0.00,,,0.00,,2013-05-24 09:01:00,
2013-05-24 04:11:00,38.0,35.0,30.34,ENE,75,0.0,0.0,90,0.00,,,0.00,,2013-05-24 09:11:00,
2013-05-24 04:21:00,37.0,34.0,30.35,ENE,75,0.0,0.0,90,0.00,,,0.00,,2013-05-24 09:21:00,
2013-05-24 04:32:00,37.0,34.0,30.35,ENE,75,0.0,0.0,90,0.00,,,0.00,,2013-05-24 09:32:00,
2013-05-24 04:42:00,37.0,34.0,30.35,ENE,75,0.0,0.0,90,0.00,,,0.00,,2013-05-24 09:42:00,
2013-05-24 04:53:00,37.0,34.0,30.35,ENE,75,0.0,0.0,90,0.00,,,0.00,,2013-05-24 09:53:00,
2013-05-24 05:02:00,37.0,34.0,30.35,ENE,75,0.0,0.0,90,0.00,,,0.00,,2013-05-24 10:02:00,
2013-05-24 05:12:00,37.0,34.0,30.35,ENE,75,0.0,0.0,90,0.00,,,0.00,,2013-05-24 10:12:00,
2013-05-24 05:22:00,37.0,34.0,30.35,ENE,75,0.0,0.0,90,0.00,,,0.00,,2013-05-24 10:22:00,
2013-05-24 05:32:00,37.0,34.0,30.36,ENE,75,0.0,0.0,90,0.00,,,0.00,,2013-05-24 10:32:00,
2013-05-24 05:42:00,37.0,34.0,30.36,ENE,75,0.0,0.0,90,0.00,,,0.00,,2013-05-24 10:42:00,
2013-05-24 05:52:00,37.0,34.0,30.36,ENE,75,0.0,0.0,90,0.00,,,0.00,,2013-05-24 10:52:00,
2013-05-24 06:02:00,37.0,34.0,30.36,ENE,75,0.0,0.0,90,0.00,,,0.00,,2013-05-24 11:02:00,
2013-05-24 06:12:00,37.0,34.0,30.36,ENE,75,0.0,0.0,90,0.00,,,0.00,,2013-05-24 11:12:00,
2013-05-24 06:22:00,38.0,36.0,30.36,ENE,75,0.0,0.0,91,0.00,,,0.00,,2013-05-24 11:22:00,
2013-05-24 06:32:00,38.0,36.0,30.36,ENE,75,0.0,0.0,91,0.00,,,0.00,,2013-05-24 11:32:00,
2013-05-24 06:42:00,38.0,36.0,30.36,ENE,75,0.0,0.0,91,0.00,,,0.00,,2013-05-24 11:42:00,
2013-05-24 06:52:00,39.0,37.0,30.37,ENE,75,0.0,0.0,91,0.00,,,0.00,,2013-05-24 11:52:00,
2013-05-24 07:02:00,40.0,37.0,30.37,North,355,0.0,2.0,90,0.00,,,0.00,,2013-05-24 12:02:00,
2013-05-24 07:11:00,40.0,37.0,30.37,North,355,0.0,2.0,90,0.00,,,0.00,,2013-05-24 12:11:00,
2013-05-24 07:21:00,41.0,38.0,30.39,North,355,0.0,2.0,88,0.00,,,0.00,,2013-05-24 12:21:00,
2013-05-24 07:32:00,43.0,38.0,30.40,North,5,0.0,1.0,83,0.00,,,0.00,,2013-05-24 12:32:00,
2013-05-24 07:42:00,43.0,38.0,30.40,North,5,0.0,1.0,83,0.00,,,0.00,,2013-05-24 12:42:00,
2013-05-24 07:52:00,44.0,37.0,30.41,NE,44,0.0,4.0,76,0.00,,,0.00,,2013-05-24 12:52:00,
2013-05-24 08:02:00,45.0,36.0,30.41,ENE,72,2.0,6.0,70,0.00,,,0.00,,2013-05-24 13:02:00,
2013-05-24 08:11:00,45.0,36.0,30.41,ENE,72,2.0,6.0,70,0.00,,,0.00,,2013-05-24 13:11:00,
2013-05-24 08:21:00,46.0,36.0,30.41,NW,309,1.0,5.0,68,0.00,,,0.00,,2013-05-24 13:21:00,
2013-05-24 08:32:00,47.0,36.0,30.42,WSW,241,0.0,2.0,65,0.00,,,0.00,,2013-05-24 13:32:00,
2013-05-24 08:41:00,47.0,36.0,30.42,WSW,241,0.0,2.0,65,0.00,,,0.00,,2013-05-24 13:41:00,
2013-05-24 08:52:00,48.0,36.0,30.42,NE,41,0.0,4.0,63,0.00,,,0.00,,2013-05-24 13:52:00,
2013-05-24 09:01:00,48.0,34.0,30.43,NE,39,1.0,4.0,59,0.00,,,0.00,,2013-05-24 14:01:00,
2013-05-24 09:11:00,48.0,34.0,30.43,NE,39,1.0,4.0,59,0.00,,,0.00,,2013-05-24 14:11:00,
2013-05-24 09:21:00,49.0,35.0,30.43,WNW,298,3.0,6.0,59,0.00,,,0.00,,2013-05-24 14:21:00,
2013-05-24 09:31:00,49.0,34.0,30.43,ESE,103,2.0,6.0,57,0.00,,,0.00,,2013-05-24 14:31:00,
2013-05-24 09:42:00,49.0,34.0,30.43,ESE,103,2.0,6.0,57,0.00,,,0.00,,2013-05-24 14:42:00,
2013-05-24 09:52:00,50.0,35.0,30.43,ENE,64,0.0,5.0,56,0.00,,,0.00,,2013-05-24 14:52:00,
2013-05-24 10:02:00,51.0,35.0,30.43,NNE,33,3.0,5.0,55,0.00,,,0.00,,2013-05-24 15:02:00,
2013-05-24 10:11:00,51.0,35.0,30.43,NNE,33,3.0,5.0,55,0.00,,,0.00,,2013-05-24 15:11:00,
2013-05-24 10:21:00,51.0,34.0,30.43,ENE,62,1.0,8.0,53,0.00,,,0.00,,2013-05-24 15:21:00,
2013-05-24 10:32:00,52.0,35.0,30.43,North,355,2.0,7.0,53,0.00,,,0.00,,2013-05-24 15:32:00,
2013-05-24 10:43:00,52.0,35.0,30.43,North,355,2.0,7.0,53,0.00,,,0.00,,2013-05-24 15:43:00,
2013-05-24 10:52:00,52.0,36.0,30.42,NE,44,1.0,6.0,55,0.00,,,0.00,,2013-05-24 15:52:00,
2013-05-24 11:03:00,53.0,37.0,30.42,SSW,198,3.0,7.0,54,0.00,,,0.00,,2013-05-24 16:03:00,
2013-05-24 11:12:00,53.0,37.0,30.42,SSW,198,3.0,7.0,54,0.00,,,0.00,,2013-05-24 16:12:00,
2013-05-24 11:22:00,52.0,36.0,30.42,NW,326,2.0,8.0,54,0.00,,,0.00,,2013-05-24 16:22:00,
2013-05-24 11:32:00,54.0,39.0,30.42,NE,55,0.0,5.0,56,0.00,,,0.00,,2013-05-24 16:32:00,
2013-05-24 11:42:00,54.0,39.0,30.42,NE,55,0.0,5.0,56,0.00,,,0.00,,2013-05-24 16:42:00,
2013-05-24 11:52:00,55.0,41.0,30.42,NNE,25,4.0,6.0,58,0.00,,,0.00,,2013-05-24 16:52:00,
2013-05-24 12:02:00,55.0,40.0,30.41,NE,48,4.0,7.0,56,0.00,,,0.00,,2013-05-24 17:02:00,
2013-05-24 12:12:00,55.0,40.0,30.41,NE,48,4.0,7.0,56,0.00,,,0.00,,2013-05-24 17:12:00,
2013-05-24 12:22:00,55.0,39.0,30.41,West,269,0.0,5.0,55,0.00,,,0.00,,2013-05-24 17:22:00,
2013-05-24 12:32:00,56.0,41.0,30.40,WNW,303,3.0,6.0,56,0.00,,,0.00,,2013-05-24 17:32:00,
2013-05-24 12:41:00,56.0,41.0,30.40,WNW,303,3.0,6.0,56,0.00,,,0.00,,2013-05-24 17:41:00,
2013-05-24 12:52:00,55.0,41.0,30.41,WNW,295,2.0,8.0,58,0.00,,,0.00,,2013-05-24 17:52:00,
2013-05-24 13:01:00,55.0,40.0,30.40,WNW,302,4.0,8.0,56,0.00,,,0.00,,2013-05-24 18:01:00,
2013-05-24 13:12:00,55.0,40.0,30.40,WNW,302,4.0,8.0,56,0.00,,,0.00,,2013-05-24 18:12:00,
2013-05-24 13:21:00,56.0,41.0,30.39,WNW,288,2.0,5.0,57,0.00,,,0.00,,2013-05-24 18:21:00,
2013-05-24 13:32:00,57.0,41.0,30.39,SSW,205,1.0,6.0,55,0.00,,,0.00,,2013-05-24 18:32:00,
2013-05-24 13:41:00,57.0,41.0,30.39,SSW,205,1.0,6.0,55,0.00,,,0.00,,2013-05-24 18:41:00,
2013-05-24 13:52:00,58.0,41.0,30.38,East,87,0.0,6.0,54,0.00,,,0.00,,2013-05-24 18:52:00,
2013-05-24 14:01:00,59.0,40.0,30.37,South,184,3.0,6.0,49,0.00,,,0.00,,2013-05-24 19:01:00,
2013-05-24 14:11:00,59.0,40.0,30.37,South,184,3.0,6.0,49,0.00,,,0.00,,2013-05-24 19:11:00,
2013-05-24 14:21:00,59.0,40.0,30.37,NNE,30,1.0,7.0,49,0.00,,,0.00,,2013-05-24 19:21:00,
2013-05-24 14:32:00,59.0,42.0,30.37,NE,53,3.0,7.0,53,0.00,,,0.00,,2013-05-24 19:32:00,
2013-05-24 14:41:00,59.0,42.0,30.37,NE,53,3.0,7.0,53,0.00,,,0.00,,2013-05-24 19:41:00,
2013-05-24 14:52:00,60.0,42.0,30.36,NE,52,3.0,6.0,51,0.00,,,0.00,,2013-05-24 19:52:00,
2013-05-24 15:02:00,60.0,41.0,30.35,NNE,12,1.0,7.0,50,0.00,,,0.00,,2013-05-24 20:02:00,
2013-05-24 15:11:00,60.0,41.0,30.35,NNE,12,1.0,7.0,50,0.00,,,0.00,,2013-05-24 20:11:00,
2013-05-24 15:21:00,60.0,40.0,30.35,ENE,64,3.0,8.0,48,0.00,,,0.00,,2013-05-24 20:21:00,
2013-05-24 15:32:00,61.0,42.0,30.34,East,89,4.0,7.0,50,0.00,,,0.00,,2013-05-24 20:32:00,
2013-05-24 15:41:00,61.0,42.0,30.34,East,89,4.0,7.0,50,0.00,,,0.00,,2013-05-24 20:41:00,
2013-05-24 15:52:00,61.0,41.0,30.35,NE,45,5.0,8.0,47,0.00,,,0.00,,2013-05-24 20:52:00,
2013-05-24 16:01:00,62.0,39.0,30.34,NE,55,2.0,6.0,43,0.00,,,0.00,,2013-05-24 21:01:00,
2013-05-24 16:11:00,62.0,39.0,30.34,NE,55,2.0,6.0,43,0.00,,,0.00,,2013-05-24 21:11:00,
2013-05-24 16:21:00,61.0,39.0,30.33,SSE,168,0.0,6.0,44,0.00,,,0.00,,2013-05-24 21:21:00,
2013-05-24 16:32:00,62.0,40.0,30.32,ENE,66,1.0,7.0,45,0.00,,,0.00,,2013-05-24 21:32:00,
2013-05-24 16:42:00,62.0,40.0,30.32,ENE,66,1.0,7.0,45,0.00,,,0.00,,2013-05-24 21:42:00,
2013-05-24 16:53:00,62.0,40.0,30.31,NNE,18,1.0,8.0,45,0.00,,,0.00,,2013-05-24 21:53:00,
2013-05-24 17:02:00,62.0,40.0,30.31,NNW,348,0.0,7.0,45,0.00,,,0.00,,2013-05-24 22:02:00,
2013-05-24 17:12:00,62.0,40.0,30.31,NNW,348,0.0,7.0,45,0.00,,,0.00,,2013-05-24 22:12:00,
2013-05-24 17:22:00,62.0,40.0,30.30,North,11,3.0,7.0,45,0.00,,,0.00,,2013-05-24 22:22:00,
2013-05-24 17:33:00,62.0,43.0,30.30,East,81,2.0,6.0,49,0.00,,,0.00,,2013-05-24 22:33:00,
2013-05-24 17:42:00,62.0,43.0,30.30,East,81,2.0,6.0,49,0.00,,,0.00,,2013-05-24 22:42:00,
2013-05-24 17:52:00,63.0,41.0,30.30,North,10,0.0,7.0,44,0.00,,,0.00,,2013-05-24 22:52:00,
2013-05-24 18:02:00,63.0,42.0,30.29,SSE,164,3.0,5.0,46,0.00,,,0.00,,2013-05-24 23:02:00,
2013-05-24 18:11:00,63.0,42.0,30.29,SSE,164,3.0,5.0,46,0.00,,,0.00,,2013-05-24 23:11:00,
2013-05-24 18:22:00,63.0,42.0,30.29,South,188,2.0,5.0,46,0.00,,,0.00,,2013-05-24 23:22:00,
2013-05-24 18:32:00,63.0,42.0,30.29,SE,143,1.0,2.0,47,0.00,,,0.00,,2013-05-24 23:32:00,
2013-05-24 18:42:00,63.0,42.0,30.29,SE,143,1.0,2.0,47,0.00,,,0.00,,2013-05-24 23:42:00,
2013-05-24 18:52:00,61.0,42.0,30.29,SSW,198,1.0,7.0,49,0.00,,,0.00,,2013-05-24 23:52:00,
2013-05-24 19:01:00,61.0,40.0,30.29,South,189,3.0,7.0,46,0.00,,,0.00,,2013-05-25 00:01:00,
2013-05-24 19:11:00,61.0,40.0,30.29,South,189,3.0,7.0,46,0.00,,,0.00,,2013-05-25 00:11:00,
2013-05-24 19:21:00,61.0,42.0,30.29,NE,55,1.0,6.0,50,0.00,,,0.00,,2013-05-25 00:21:00,
2013-05-24 19:32:00,59.0,45.0,30.30,East,89,1.0,7.0,59,0.00,,,0.00,,2013-05-25 00:32:00,
2013-05-24 19:41:00,59.0,45.0,30.30,East,89,1.0,7.0,59,0.00,,,0.00,,2013-05-25 00:41:00,
2013-05-24 19:52:00,58.0,45.0,30.30,SSE,167,1.0,7.0,61,0.00,,,0.00,,2013-05-25 00:52:00,
2013-05-24 20:01:00,57.0,45.0,30.31,NE,55,0.0,6.0,63,0.00,,,0.00,,2013-05-25 01:01:00,
2013-05-24 20:11:00,57.0,45.0,30.31,NE,55,0.0,6.0,63,0.00,,,0.00,,2013-05-25 01:11:00,
2013-05-24 20:22:00,56.0,44.0,30.32,SSE,165,0.0,2.0,65,0.00,,,0.00,,2013-05-25 01:22:00,
2013-05-24 20:32:00,55.0,44.0,30.32,ENE,74,1.0,3.0,67,0.00,,,0.00,,2013-05-25 01:32:00,
2013-05-24 20:41:00,55.0,44.0,30.32,ENE,74,1.0,3.0,67,0.00,,,0.00,,2013-05-25 01:41:00,
2013-05-24 20:52:00,54.0,43.0,30.33,ENE,71,1.0,4.0,67,0.00,,,0.00,,2013-05-25 01:52:00,
2013-05-24 21:01:00,53.0,42.0,30.33,East,84,1.0,4.0,67,0.00,,,0.00,,2013-05-25 02:01:00,
2013-05-24 21:11:00,53.0,42.0,30.33,East,84,1.0,4.0,67,0.00,,,0.00,,2013-05-25 02:11:00,
2013-05-24 21:21:00,52.0,42.0,30.33,ENE,75,0.0,5.0,69,0.00,,,0.00,,2013-05-25 02:21:00,
2013-05-24 21:31:00,51.0,42.0,30.33,East,95,1.0,4.0,71,0.00,,,0.00,,2013-05-25 02:31:00,
2013-05-24 21:42:00,51.0,42.0,30.33,East,95,1.0,4.0,71,0.00,,,0.00,,2013-05-25 02:42:00,
2013-05-24 21:52:00,50.0,41.0,30.33,East,87,0.0,1.0,72,0.00,,,0.00,,2013-05-25 02:52:00,
2013-05-24 22:01:00,49.0,41.0,30.34,East,87,0.0,2.0,73,0.00,,,0.00,,2013-05-25 03:01:00,
2013-05-24 22:11:00,49.0,41.0,30.34,East,87,0.0,2.0,73,0.00,,,0.00,,2013-05-25 03:11:00,
2013-05-24 22:21:00,49.0,41.0,30.34,ENE,72,0.0,2.0,74,0.00,,,0.00,,2013-05-25 03:21:00,
2013-05-24 22:32:00,48.0,40.0,30.35,ENE,77,0.0,3.0,74,0.00,,,0.00,,2013-05-25 03:32:00,
2013-05-24 22:43:00,48.0,40.0,30.35,ENE,77,0.0,3.0,74,0.00,,,0.00,,2013-05-25 03:43:00,
2013-05-24 22:53:00,48.0,40.0,30.35,East,90,0.0,1.0,74,0.00,,,0.00,,2013-05-25 03:53:00,
2013-05-24 23:02:00,47.0,39.0,30.35,East,94,0.0,1.0,75,0.00,,,0.00,,2013-05-25 04:02:00,
2013-05-24 23:12:00,47.0,39.0,30.35,East,94,0.0,1.0,75,0.00,,,0.00,,2013-05-25 04:12:00,
2013-05-24 23:23:00,47.0,39.0,30.35,East,92,0.0,0.0,75,0.00,,,0.00,,2013-05-25 04:23:00,
2013-05-24 23:33:00,46.0,39.0,30.35,SE,136,0.0,2.0,75,0.00,,,0.00,,2013-05-25 04:33:00,
2013-05-24 23:43:00,46.0,39.0,30.35,SE,136,0.0,2.0,75,0.00,,,0.00,,2013-05-25 04:43:00,
2013-05-24 23:53:00,46.0,38.0,30.34,South,186,0.0,2.0,74,0.00,,,0.00,,2013-05-25 04:53:00,